Theta_e
308 309 320 322 319 314 318 319 317 319 319 319 320 326 325 321 327 332 319 318 321 329 332 333 334 336 336 336 335 333 331 331 331 330 331 331 331 328 326 322 318 321 321 319 324 327 325 325 323
308 312 320 324 313 319 317 318 319 318 319 321 325 325 321 318 318 318 318 318 319 320 328 331 332 335 335 337 336 335 332 330 331 330 330 330 332 330 328 324 321 324 321 318 322 325 324 324 323
310 318 322 314 312 316 317 316 316 317 318 319 320 321 319 316 317 317 317 317 317 318 318 325 329 332 333 336 336 336 336 332 329 330 329 328 330 330 328 326 325 325 322 319 322 324 323 323 322
319 323 319 317 319 318 316 315 315 315 316 317 318 316 316 315 317 316 315 313 313 314 315 317 322 328 330 333 335 335 335 335 331 328 328 327 327 328 327 327 327 327 321 319 325 323 323 321 322
321 321 315 314 315 315 314 314 315 314 314 315 316 315 315 313 314 314 313 312 312 313 313 313 314 317 327 329 333 334 334 334 334 331 328 326 324 323 324 325 329 327 320 320 323 322 320 322 316
319 316 315 317 316 314 313 314 314 313 314 314 314 317 313 312 314 313 312 311 311 312 312 312 312 312 313 324 329 331 331 333 334 334 330 326 324 324 323 325 330 326 319 320 321 322 322 314 310
316 309 312 314 315 314 314 314 313 313 313 313 314 313 313 313 313 313 311 310 310 310 311 311 311 311 311 311 319 325 329 331 331 332 332 328 326 324 326 327 330 325 320 317 322 322 322 313 309
315 308 313 312 313 314 313 314 314 314 313 314 314 312 312 312 312 311 310 310 309 309 309 309 309 310 310 311 311 313 322 328 330 330 329 330 327 323 326 329 330 323 318 318 323 322 321 312 309
314 310 309 313 312 314 314 313 314 314 313 314 314 313 311 311 310 310 309 309 309 308 308 308 308 308 308 309 310 311 311 318 328 328 329 329 328 324 328 329 328 323 316 319 322 321 321 312 308
311 309 312 313 313 313 313 313 314 313 313 313 313 312 311 310 310 309 308 308 307 306 306 307 307 307 307 307 308 309 310 311 313 319 325 328 329 326 327 328 327 323 317 317 321 320 320 313 308
312 312 312 314 314 314 313 314 314 313 312 313 313 313 311 310 309 308 308 306 303 301 302 304 304 306 307 307 308 308 308 309 310 312 317 325 328 328 326 324 327 323 319 318 321 320 320 312 308
313 313 314 314 313 314 313 313 312 313 313 314 312 311 310 310 308 307 305 304 302 301 300 300 303 306 307 306 307 307 308 308 309 309 311 316 326 327 326 324 326 325 318 318 320 320 319 315 309
312 313 314 314 313 313 313 312 312 312 313 313 311 311 310 309 308 306 305 303 301 300 299 300 303 306 307 306 306 307 307 308 308 309 309 313 321 324 320 323 322 325 319 319 319 319 317 317 311
313 313 313 314 313 313 313 312 312 312 313 313 311 311 310 309 307 306 305 303 301 300 299 300 304 306 307 307 306 306 307 307 308 308 309 309 318 322 324 322 324 325 321 321 319 318 318 316 314
313 314 313 312 313 312 312 309 310 311 312 312 311 310 309 309 307 306 305 303 300 299 298 301 305 307 307 305 306 307 305 304 306 308 308 309 312 320 325 327 324 322 323 323 322 319 319 318 317
314 312 312 313 312 312 309 309 309 311 312 312 311 310 309 309 307 306 305 303 300 298 298 302 306 307 307 305 307 308 307 304 304 306 308 308 309 316 323 326 324 323 321 322 323 321 321 319 319
311 311 313 313 312 312 310 308 308 312 311 311 311 310 309 308 307 305 305 302 299 298 301 303 307 307 307 307 309 310 309 308 306 306 306 307 309 313 322 325 325 323 321 323 323 321 320 321 320
315 313 312 311 311 311 310 311 309 311 310 311 311 311 309 308 307 306 305 300 298 298 302 305 307 307 307 309 310 311 311 310 308 307 306 307 308 311 321 325 324 323 323 320 319 322 320 320 319
312 312 311 311 311 310 310 310 309 309 310 309 310 311 309 307 306 306 304 299 298 300 303 304 306 307 308 310 311 311 311 310 309 307 306 307 308 311 320 324 322 321 319 319 320 321 319 318 318
312 311 310 309 310 309 308 310 309 308 307 308 310 311 309 306 307 306 302 299 298 301 303 305 307 308 309 311 312 311 311 310 309 307 307 308 309 313 320 323 324 319 320 320 321 322 319 315 315
311 309 308 308 308 308 307 307 307 311 310 310 310 312 308 308 307 306 300 298 298 301 305 306 307 308 308 311 313 312 314 312 312 308 308 310 310 316 322 320 322 322 321 321 322 322 320 315 315
310 311 309 310 308 306 306 309 303 309 310 309 310 309 308 308 307 304 299 298 299 302 306 306 307 308 309 312 312 313 314 314 314 312 311 312 312 317 321 322 324 323 321 321 321 322 320 314 318
309 308 309 310 309 309 307 304 307 307 308 309 308 308 309 308 306 301 299 297 300 303 306 306 308 308 310 311 312 313 313 315 316 313 313 313 316 317 318 321 323 321 321 320 322 321 319 316 318
307 309 309 308 308 306 304 306 308 304 308 307 308 310 309 306 304 300 298 297 301 303 306 307 308 308 308 310 312 313 314 314 317 316 316 314 317 318 319 321 321 321 320 321 321 321 319 319 318
309 307 308 308 308 309 310 308 310 307 310 307 307 309 307 305 302 300 298 297 301 304 306 307 309 308 309 310 313 312 313 314 316 316 318 317 316 320 321 321 322 323 321 322 322 321 320 319 319
307 307 309 309 312 310 307 310 308 306 308 309 308 309 306 303 301 300 298 297 301 305 306 308 309 309 309 311 313 312 311 314 316 316 317 318 317 318 318 321 322 321 322 321 320 320 320 318 316
308 309 306 307 300 306 306 305 304 307 306 306 306 305 304 303 301 299 298 297 302 305 306 308 309 309 309 309 312 313 312 314 316 317 318 318 315 315 319 319 320 320 319 320 320 316 315 313 312
307 305 306 303 304 307 307 308 307 307 306 304 302 303 304 302 301 299 298 297 301 305 305 307 309 309 311 310 311 313 313 311 314 316 317 318 318 318 318 319 319 318 316 314 313 314 312 312 312
306 307 307 305 307 310 308 308 303 306 305 304 303 305 305 303 301 299 298 297 300 304 305 306 308 309 310 309 309 311 312 312 312 316 316 316 316 315 315 314 314 314 314 312 311 312 310 311 310
304 306 306 309 307 305 308 308 305 306 305 304 305 307 307 305 302 300 298 297 299 303 306 306 307 308 309 309 309 310 310 311 312 312 313 313 313 313 312 311 311 310 310 311 312 311 307 306 306
Wind_Speed
5 7 6 2 3 4 2 2 2 4 2 2 3 2 8 6 3 1 4 7 7 6 6 9 6 7 8 11 13 10 11 12 12 13 13 14 13 12 12 9 8 8 8 7 9 10 9 11 9
6 7 5 1 4 3 4 2 3 1 2 3 10 8 6 3 5 3 3 6 8 8 7 8 9 11 13 13 14 14 13 13 14 14 14 14 15 14 13 11 9 9 8 8 9 11 11 11 10
8 8 2 4 3 3 4 3 1 1 4 3 4 9 4 2 2 1 6 8 8 10 10 9 11 14 16 17 16 16 16 15 16 16 15 14 16 15 12 12 13 12 9 9 11 15 14 12 11
6 4 1 4 4 3 5 3 3 2 4 6 4 7 5 4 1 5 8 9 8 9 12 12 11 13 16 18 20 15 17 17 18 18 17 17 17 17 15 13 16 13 8 8 16 15 14 12 13
4 1 3 2 3 2 1 2 0 2 3 3 2 5 6 4 2 7 11 12 11 11 14 17 16 14 15 18 19 20 21 21 21 20 20 19 19 18 18 18 18 13 9 10 12 15 14 18 14
2 1 4 3 4 3 2 1 1 3 3 1 4 7 5 3 5 11 14 13 12 15 17 19 21 21 18 18 21 24 23 25 24 23 23 21 20 19 20 21 22 15 12 12 14 14 15 14 14
4 3 3 4 5 4 3 0 2 3 1 1 2 6 7 1 9 14 17 16 15 17 20 21 22 23 22 23 23 24 25 24 26 27 25 24 23 21 21 22 24 16 14 13 14 16 17 14 14
3 4 3 3 5 5 3 3 2 1 2 3 1 3 4 6 12 15 15 16 16 17 19 21 21 22 24 25 25 25 26 28 28 34 30 26 25 23 23 24 25 17 16 16 18 14 16 13 13
1 2 3 3 4 3 3 3 2 1 1 3 3 3 1 7 12 14 14 14 15 18 18 19 20 21 23 24 26 27 27 27 32 31 30 30 28 25 24 27 25 19 18 19 18 16 16 13 12
3 3 5 1 0 2 2 2 4 2 1 3 7 2 4 10 12 13 14 14 16 19 21 21 22 23 23 23 24 27 26 27 28 29 29 27 29 28 28 27 23 20 20 20 19 17 16 13 14
3 4 3 1 1 2 3 2 3 3 4 8 9 9 9 10 12 12 10 12 17 20 23 26 27 28 28 24 23 23 23 25 28 28 27 28 25 32 32 29 26 23 22 21 20 17 16 14 14
2 1 2 3 2 2 2 2 3 10 5 5 6 6 8 11 11 9 9 15 20 23 25 26 29 31 27 25 22 21 22 22 26 28 26 24 24 19 38 31 30 26 27 24 22 20 15 15 15
1 3 3 4 3 4 3 6 7 11 12 8 7 8 9 11 10 9 13 17 20 24 26 29 30 31 28 25 23 24 25 24 23 25 27 24 21 23 27 32 34 31 30 27 24 20 16 15 18
1 3 4 4 4 4 3 4 2 5 16 13 9 11 11 12 10 12 16 21 24 26 27 29 30 31 30 32 31 29 28 26 27 24 24 26 25 20 24 38 40 31 32 28 24 21 18 15 20
3 1 3 6 4 3 2 6 9 12 15 13 11 12 12 11 10 13 17 22 26 27 28 29 31 34 37 34 22 24 23 27 28 25 22 25 29 28 19 40 43 36 30 29 25 21 18 19 18
1 2 3 1 5 1 2 9 3 13 16 16 13 14 13 11 10 11 16 20 24 26 28 29 29 36 36 28 25 23 22 24 25 24 21 23 27 30 22 28 50 43 35 33 30 25 20 20 17
4 2 3 5 8 2 4 7 4 15 18 18 15 14 15 10 9 10 15 20 22 24 27 32 28 36 30 26 24 24 21 20 18 20 19 20 24 29 28 22 35 37 40 38 30 22 20 23 16
3 2 4 5 2 3 6 18 10 15 20 23 19 15 14 12 9 10 15 19 21 22 26 30 28 33 28 24 25 25 24 20 17 17 19 17 22 29 28 20 28 26 30 21 20 26 22 18 13
2 2 3 3 1 3 7 16 19 17 24 23 24 18 14 12 9 10 15 18 20 22 28 31 29 33 25 24 26 26 24 18 15 14 12 13 17 27 26 24 24 31 22 19 31 28 25 21 18
2 1 4 5 2 3 5 21 15 8 11 22 27 22 15 13 9 10 14 18 20 23 28 32 32 33 22 22 21 21 21 16 12 11 11 11 15 27 18 31 29 33 20 30 32 29 24 23 24
2 4 3 4 6 3 8 9 5 3 1 10 19 17 13 12 9 9 13 17 19 22 26 30 33 28 21 19 18 18 19 15 11 5 6 9 18 31 20 26 24 31 27 32 33 30 29 31 31
2 3 3 1 4 3 5 5 6 4 6 2 15 15 15 10 6 7 12 15 18 20 22 27 31 28 21 17 17 20 16 13 9 4 3 4 23 25 22 24 24 29 28 28 32 30 26 32 36
3 4 3 2 1 3 4 3 8 5 5 6 10 16 13 10 6 5 10 13 15 18 22 27 30 26 18 18 18 14 15 11 5 4 5 14 17 16 22 22 20 27 24 26 31 27 31 32 31
5 3 4 4 2 2 3 4 6 3 5 3 5 18 15 13 7 3 7 10 12 16 20 26 28 22 15 15 16 11 11 11 10 10 8 17 13 15 17 14 18 19 20 25 28 32 27 28 29
2 3 2 4 2 4 2 1 10 6 6 5 8 18 18 14 8 2 4 8 11 15 19 25 26 21 17 14 14 11 9 9 12 12 12 14 14 15 16 17 17 19 15 20 25 25 30 29 26
5 5 4 5 2 3 2 6 6 3 6 7 8 18 18 15 10 4 1 6 9 12 16 20 24 20 15 13 15 13 13 13 15 12 13 13 12 10 12 14 13 17 17 19 11 19 19 25 20
4 4 2 5 2 3 3 7 7 3 2 4 12 18 19 16 12 7 2 4 6 9 12 16 23 22 16 12 11 10 15 18 17 12 9 11 18 17 12 9 11 8 7 14 15 30 27 20 18
3 3 3 2 2 4 5 5 6 5 8 7 8 19 20 16 13 9 5 3 4 6 8 10 15 19 20 13 13 11 13 19 22 20 15 14 18 15 13 13 13 21 29 28 23 26 23 24 27
3 2 1 2 4 4 2 6 6 5 6 11 12 25 23 20 17 12 7 5 4 3 7 8 11 14 17 19 18 17 15 15 25 23 24 26 26 31 36 35 33 33 33 29 32 31 31 26 26
3 6 6 4 5 2 1 7 5 4 5 12 20 27 24 21 19 15 10 8 7 5 8 9 9 12 13 16 20 26 29 29 31 36 37 37 36 35 36 36 39 37 35 31 29 30 25 24 22
Wind_Direction
204 198 209 206 64 65 275 281 30 20 41 329 341 56 112 68 64 223 153 345 327 315 300 306 294 264 245 249 258 254 242 240 236 234 233 233 223 217 223 226 215 204 200 200 167 180 180 196 189
173 174 195 183 97 94 269 279 93 31 195 74 84 91 52 64 68 102 141 328 332 338 311 295 287 271 258 259 250 256 252 242 240 237 237 236 226 224 223 223 215 196 194 198 181 192 200 195 185
159 164 200 110 114 169 195 216 196 174 51 82 88 69 69 34 52 86 3 344 328 325 320 303 287 279 270 262 258 256 254 248 242 239 237 238 233 227 235 228 204 197 201 194 183 189 204 188 179
159 168 122 98 211 209 183 203 236 149 72 56 104 74 89 59 270 346 340 338 324 316 304 301 287 273 271 268 269 264 257 254 247 242 237 237 234 235 228 227 204 201 212 185 191 198 190 194 182
144 153 53 50 266 127 197 207 44 78 88 34 48 154 124 72 32 336 334 325 311 307 300 299 293 287 277 268 268 264 251 252 248 241 238 236 236 235 227 220 211 209 211 189 199 202 185 184 186
101 99 61 239 237 164 235 284 124 73 54 74 90 131 147 72 348 332 331 329 317 303 295 290 291 292 278 264 256 256 254 249 245 243 236 231 232 228 222 218 211 211 204 206 196 197 190 179 176
109 79 213 233 197 169 209 326 97 106 103 96 115 140 173 199 324 322 319 315 310 301 295 295 295 290 282 272 262 254 255 246 244 243 235 231 224 222 221 216 208 213 207 205 205 206 198 184 179
73 94 250 235 192 213 197 149 140 157 190 146 203 170 179 290 315 314 311 309 309 309 308 304 295 293 289 282 274 266 257 253 244 245 239 226 228 221 217 212 205 210 206 191 205 226 198 184 183
155 68 248 235 181 185 165 159 155 180 199 191 183 169 309 318 304 303 313 320 326 334 333 325 319 310 297 288 278 270 259 255 248 249 247 232 227 223 215 205 206 209 201 197 205 216 212 186 186
114 144 234 278 91 159 163 184 183 193 200 198 173 169 307 297 308 319 327 338 351 353 355 351 345 336 324 303 282 276 271 261 254 253 263 227 222 226 214 208 211 208 200 199 205 213 212 191 185
172 207 178 240 120 142 187 190 205 175 239 212 213 254 294 305 317 320 334 347 351 352 350 351 346 336 326 326 291 281 279 269 262 255 250 251 226 221 216 210 206 205 201 199 201 210 207 193 185
201 168 171 181 240 233 212 266 253 222 241 219 245 265 283 304 308 326 340 344 342 346 343 340 342 340 330 321 315 292 289 279 267 263 254 255 235 259 207 209 204 206 202 201 203 203 204 196 189
198 195 150 181 212 236 255 254 253 240 233 234 240 248 265 293 299 318 331 337 341 341 339 338 340 339 334 326 313 304 291 281 275 270 258 247 238 217 237 227 217 206 204 203 204 201 196 196 188
261 184 196 220 239 247 246 257 305 256 217 216 232 242 256 288 297 319 329 340 341 340 336 335 336 336 332 323 309 303 295 280 269 269 258 241 235 222 220 220 216 204 199 204 205 204 201 198 191
135 325 287 232 214 239 312 268 232 245 193 211 233 241 249 287 302 317 332 337 336 335 334 334 334 332 328 324 323 321 311 295 276 266 257 237 230 225 203 215 199 204 207 204 207 203 199 193 189
34 57 330 253 161 210 72 272 280 199 197 220 234 237 244 277 295 310 326 329 331 331 331 329 332 331 332 331 326 320 317 300 285 273 259 243 225 225 218 218 208 210 207 208 200 198 197 195 188
5 244 230 309 204 126 182 271 277 202 212 230 238 242 241 260 269 296 318 327 331 333 331 333 333 334 335 336 336 332 325 313 298 284 268 252 226 214 216 219 227 206 196 202 196 196 196 189 181
209 240 251 249 226 214 263 263 256 230 224 234 240 243 237 243 255 298 318 325 331 336 334 341 336 339 339 345 341 338 329 314 301 289 270 256 223 206 207 205 216 197 186 187 205 194 188 188 174
162 224 263 273 291 272 237 270 276 236 233 236 238 237 234 228 254 298 318 325 335 340 341 349 344 342 343 351 344 346 334 319 304 283 263 251 217 196 204 190 207 189 174 202 202 199 179 175 179
119 97 280 283 223 248 308 289 283 254 233 227 226 225 224 213 248 294 320 329 344 345 347 352 349 340 347 352 351 353 344 335 320 274 234 237 198 185 192 194 194 178 195 200 201 193 171 178 184
149 166 226 242 324 277 322 292 337 318 345 223 219 219 207 218 257 301 323 336 347 347 352 357 349 350 348 355 355 346 335 355 357 305 223 212 190 176 170 198 204 202 193 198 203 194 189 176 179
221 172 162 339 31 271 28 280 309 322 319 203 204 200 197 219 252 302 323 340 352 351 353 358 353 350 355 354 0 353 344 348 334 45 95 208 167 181 174 183 197 199 192 197 205 197 199 182 183
207 141 133 92 38 6 340 64 271 347 312 240 212 205 209 213 235 296 327 348 355 354 357 360 354 352 4 1 358 359 3 357 46 116 109 159 161 173 176 193 199 193 200 199 197 203 193 188 187
133 94 46 49 67 3 245 128 286 233 220 283 212 214 207 200 214 282 331 354 359 2 4 4 0 4 8 12 360 8 17 37 74 108 122 156 164 168 173 190 194 201 204 209 214 197 188 189 194
106 86 339 346 10 225 164 67 247 255 242 220 204 203 198 197 205 210 334 2 8 13 15 12 9 15 16 16 7 22 44 63 86 101 115 145 148 164 173 178 191 188 203 215 204 204 201 196 201
176 166 164 219 224 278 89 236 252 219 296 216 208 194 189 197 199 185 9 11 21 25 26 19 23 22 20 38 24 22 68 83 81 104 109 122 123 125 141 173 170 195 210 184 188 185 163 138 130
182 193 170 106 31 36 230 280 295 168 99 127 163 184 197 199 200 182 140 36 40 34 39 33 41 39 30 34 51 30 82 93 97 97 124 121 113 148 141 147 179 174 168 196 198 132 125 125 117
154 161 78 357 142 268 278 273 245 231 220 195 191 203 207 204 205 192 166 92 75 42 48 45 53 53 51 52 78 73 73 92 104 102 100 136 126 119 126 150 136 138 120 110 102 116 113 127 131
142 206 135 123 160 183 295 263 212 223 198 205 203 208 209 208 206 198 185 138 121 82 66 69 60 72 73 72 80 89 96 95 111 114 119 120 122 119 117 116 116 118 117 120 118 131 133 136 130
188 188 168 149 213 223 163 272 212 234 263 215 205 210 214 213 205 200 196 167 144 147 116 90 79 92 94 92 90 92 96 101 109 115 119 121 122 124 122 121 122 122 123 126 124 129 128 130 131